Weather History for Rock Springs, WY

Change the Weather History Date:

Saturday, January 26, 2013

  Actual Average Record
Temperature  
Mean Temperature 33 °F 21 °F  
Max Temperature 40 °F 30 °F 48 °F (1975)
Min Temperature 26 °F 12 °F -23 °F (1949)
Degree Days  
Heating Degree Days 32 44  
Month to date heating degree days 1239 1139  
Since 1 July heating degree days 4163 4491  
Cooling Degree Days 0 0  
Month to date cooling degree days 0 0  
Year to date cooling degree days 0 0  
Moisture  
Dew Point 26 °F    
Average Humidity 72    
Maximum Humidity 85    
Minimum Humidity 59    
Precipitation  
Precipitation T in 0.02 in 0.53 in (1994)
Month to date precipitation T 0.37  
Year to date precipitation T 0.37  
Sea Level Pressure  
Sea Level Pressure 29.96 in    
Wind  
Wind Speed 4 mph (SSE)    
Max Wind Speed 10 mph    
Max Gust Speed 13 mph    
Visibility 10 miles    
Events      
T = Trace of Precipitation, MM = Missing Value Source: NWS Daily Summary

Daily Weather History Graph

Daily Weather History Graph

Search for Another Location

Airport:

Trip Planner

Search our weather history database for the weather conditions in past years. The results will help you decide how hot, cold, wet, or windy it might be!

Date:

Astronomy

Jan. 26, 2013 Rise Set
Actual Time 7:33 AM MST 5:24 PM MST
Civil Twilight 7:03 AM MST 5:54 PM MST
Nautical Twilight 6:29 AM MST 6:28 PM MST
Astronomical Twilight 5:57 AM MST 7:01 PM MST
Moon 5:23 PM MST (1/26) 6:52 AM MST (1/26)
Length of Visible Light 10h 51m
Length of Day
9h 51m
Full, 100% of the Moon is Illuminated
Jan 26
Full
Jan 26
Full
Feb 3
Last Quarter
Feb 10
New
Feb 17
First Quarter

Hourly Weather History & Observations

Time (MST) Temp. Windchill Dew Point Humidity Pressure Visibility Wind Dir Wind Speed Gust Speed Precip Events Conditions
12:54 AM 30.9 °F 24.3 °F 25.0 °F 79% 30.11 in 10.0 mi South 6.9 mph - N/A   Partly Cloudy
1:54 AM 28.9 °F 23.9 °F 24.1 °F 82% 30.11 in 10.0 mi North 4.6 mph - N/A   Clear
2:54 AM 30.9 °F 26.2 °F 25.0 °F 79% 30.09 in 10.0 mi SW 4.6 mph - N/A   Clear
3:54 AM 30.0 °F 23.2 °F 24.1 °F 79% 30.08 in 10.0 mi ESE 6.9 mph - N/A   Clear
4:54 AM 30.0 °F - 25.0 °F 82% 30.08 in 10.0 mi Calm Calm - N/A   Overcast
5:54 AM 28.0 °F 24.2 °F 23.0 °F 81% 30.09 in 10.0 mi South 3.5 mph - N/A   Mostly Cloudy
6:54 AM 28.9 °F 25.2 °F 24.1 °F 82% 30.07 in 10.0 mi ESE 3.5 mph - N/A   Partly Cloudy
7:54 AM 28.0 °F 22.8 °F 24.1 °F 85% 30.06 in 10.0 mi SE 4.6 mph - N/A   Clear
8:54 AM 27.0 °F 18.7 °F 23.0 °F 85% 30.06 in 10.0 mi South 8.1 mph - N/A   Clear
9:54 AM 32.0 °F 26.4 °F 26.1 °F 79% 30.04 in 10.0 mi SSE 5.8 mph - N/A   Clear
10:54 AM 35.1 °F 32.2 °F 28.0 °F 76% 30.02 in 10.0 mi East 3.5 mph - N/A   Clear
11:54 AM 37.0 °F - 28.0 °F 70% 29.99 in 10.0 mi Calm Calm - N/A   Clear
12:54 PM 37.0 °F - 28.0 °F 70% 29.95 in 10.0 mi Calm Calm - N/A   Clear
1:54 PM 39.0 °F 36.8 °F 27.0 °F 62% 29.92 in 10.0 mi North 3.5 mph - N/A   Clear
2:54 PM 39.0 °F 36.8 °F 27.0 °F 62% 29.89 in 10.0 mi NE 3.5 mph - N/A   Clear
3:54 PM 39.0 °F - 27.0 °F 62% 29.87 in 10.0 mi Calm Calm - N/A   Mostly Cloudy
4:54 PM 37.0 °F 34.5 °F 27.0 °F 67% 29.85 in 10.0 mi North 3.5 mph - N/A   Overcast
5:54 PM 35.1 °F 31.0 °F 27.0 °F 72% 29.87 in 10.0 mi NNW 4.6 mph - N/A   Overcast
6:54 PM 36.0 °F - 27.0 °F 70% 29.86 in 10.0 mi Calm Calm - N/A   Overcast
7:54 PM 35.1 °F - 28.0 °F 76% 29.86 in 10.0 mi Calm Calm - N/A   Overcast
8:54 PM 34.0 °F 28.8 °F 28.0 °F 79% 29.86 in 10.0 mi South 5.8 mph - N/A   Overcast
9:54 PM 34.0 °F 28.8 °F 28.0 °F 79% 29.84 in 10.0 mi NW 5.8 mph - N/A   Overcast
10:54 PM 34.0 °F 28.8 °F 28.0 °F 79% 29.82 in 10.0 mi SW 5.8 mph - N/A   Overcast
11:05 PM 33.8 °F 29.6 °F 28.4 °F 81% 29.82 in 10.0 mi SW 4.6 mph - N/A   Overcast
11:54 PM 32.0 °F 27.5 °F 28.9 °F 88% 29.81 in 7.0 mi SW 4.6 mph - 0.00 in   Overcast